This is the latest recevied weather packets stored in our database for station/object KD2RHT-13. If no packets are shown the sender has not sent any weather packets the latest 10 day(s).
| Time | Temp. | Humidity | Pressure | Rain* | Wind** | Luminosity | Snow |
|---|---|---|---|---|---|---|---|
| 1777722250 | 4.44° C | 92% | 1016.2 hPa | 0 mm | - | 111 W/m² | - |
| 1777721947 | 4.44° C | 93% | 1016.6 hPa | 0 mm | - | 113 W/m² | - |
| 1777721645 | 3.89° C | 94% | 1016.2 hPa | 0 mm | - | 139 W/m² | - |
| 1777721343 | 3.89° C | 93% | 1016.6 hPa | 0 mm | - | 54 W/m² | - |
| 1777721040 | 3.89° C | 93% | 1015.9 hPa | 0 mm | - | 50 W/m² | - |
| 1777720737 | 3.89° C | 94% | 1016.2 hPa | 0 mm | - | 85 W/m² | - |
| 1777720434 | 3.89° C | 95% | 1016.2 hPa | 0 mm | - | 61 W/m² | - |
| 1777720132 | 3.89° C | 95% | 1015.9 hPa | 0 mm | - | 64 W/m² | - |
| 1777719830 | 3.89° C | 95% | 1016.2 hPa | 0 mm | - | 52 W/m² | - |
| 1777719527 | 3.89° C | 96% | 1015.9 hPa | 0 mm | - | 43 W/m² | - |
| 1777719224 | 3.33° C | 96% | 1015.9 hPa | 0 mm | - | 29 W/m² | - |
| 1777718922 | 3.33° C | 98% | 1015.9 hPa | 0 mm | - | 18 W/m² | - |
| 1777718619 | 3.33° C | 99% | 1015.6 hPa | 0 mm | - | 15 W/m² | - |
| 1777718316 | 3.33° C | 99% | 1015.9 hPa | 0 mm | - | 15 W/m² | - |
| 1777718013 | 3.33° C | 99% | 1015.2 hPa | 0 mm | - | 13 W/m² | - |
| 1777717710 | 3.33° C | 99% | 1015.6 hPa | 0 mm | - | 11 W/m² | - |
| 1777717407 | 3.33° C | 99% | 1015.6 hPa | 0 mm | - | 6 W/m² | - |
| 1777717104 | 3.89° C | 99% | 1015.6 hPa | 0 mm | - | 7 W/m² | - |
| 1777716802 | 3.89° C | 99% | 1015.6 hPa | 0 mm | - | 3 W/m² | - |
| 1777716501 | 3.89° C | 99% | 1015.6 hPa | 0 mm | - | 4 W/m² | - |
| 1777716200 | 3.89° C | 99% | 1015.2 hPa | 0 mm | - | 3 W/m² | - |
| 1777715896 | 3.89° C | 99% | 1014.9 hPa | 0 mm | - | 2 W/m² | - |
| 1777715594 | 3.89° C | 99% | 1015.2 hPa | 0 mm | - | 0 W/m² | - |
| 1777715292 | 3.89° C | 99% | 1015.2 hPa | 0 mm | - | 0 W/m² | - |
| 1777714687 | 3.89° C | 99% | 1014.9 hPa | 0 mm | - | 0 W/m² | - |
* Rain latest hour (hover to see other rain measurements)
** Current wind speed in m/s (hover to see current wind gust speed)